GW4980 Weather Reports


time (UTC)temp
F
wind
direction
speed
knots
gust
knots
rain 1hr
in
rain 24hr
in
rain mn
in
humidity
%
barometer
mb
20260509173343 62 110 1.7 2.6 0.00 0.00 0.00 72 996.8
20260509172315 62 114 2.6 2.6 0.00 0.00 0.00 72 997.1
20260509171313 62 115 0.9 1.7 0.00 0.00 0.00 71 997.0
20260509170313 61 75 0.9 0.9 0.00 0.00 0.00 73 997.3
20260509165213 60 19 0.9 0.9 0.00 0.00 0.00 73 997.2
20260509164144 59 39 1.7 1.7 0.00 0.00 0.00 74 997.1
20260509163114 59 114 0.9 0.9 0.00 0.00 0.00 75 997.1
20260509162015 59 0.0 0.0 0.00 0.00 0.00 75 997.2
20260509161043 58 114 0.9 0.9 0.00 0.00 0.00 74 997.4
20260509160047 59 114 0.0 0.9 0.00 0.00 0.00 76 997.5
20260509155012 58 114 0.9 0.9 0.00 0.00 0.00 75 997.5
20260509153944 59 92 1.7 2.6 0.00 0.00 0.00 75 997.3
20260509152914 59 92 0.9 0.9 0.00 0.00 0.00 75 997.3
20260509151844 59 83 1.7 2.6 0.00 0.00 0.00 78 997.2
20260509150813 58 96 0.9 0.9 0.00 0.00 0.00 74 997.3
20260509145804 58 76 0.9 0.9 0.00 0.00 0.00 76 997.5
20260509144714 57 76 0.9 0.9 0.00 0.00 0.00 78 997.7
20260509143643 56 76 0.0 0.9 0.00 0.00 0.00 81 997.7
20260509142634 55 0.0 0.0 0.00 0.00 0.00 81 997.5
20260509141544 55 0.0 0.0 0.00 0.00 0.00 82 997.7
20260509140533 55 0.0 0.0 0.00 0.00 0.00 85 997.6
20260509135444 54 0.0 0.0 0.00 0.00 0.00 86 997.5
20260509134413 54 77 0.0 0.9 0.00 0.00 0.00 86 997.3
20260509133345 54 77 0.0 0.9 0.00 0.00 0.00 87 997.4
20260509132313 54 77 0.9 0.9 0.00 0.00 0.00 87 997.3
20260509131244 54 0.0 0.0 0.00 0.00 0.00 86 997.6
20260509130215 54 0.0 0.0 0.00 0.00 0.00 85 997.4
20260509125145 53 0.0 0.0 0.00 0.00 0.00 85 997.5
20260509124114 53 77 1.7 1.7 0.00 0.00 0.00 85 997.3
20260509123043 53 76 1.7 1.7 0.00 0.00 0.00 85 997.4
20260509122013 53 21 0.0 0.9 0.00 0.00 0.00 81 997.1
20260509120943 54 277 0.9 0.9 0.00 0.00 0.00 82 997.5
20260509115917 54 0.0 0.0 0.00 0.00 0.00 84 997.4
20260509114843 54 0.0 0.0 0.00 0.00 0.00 83 997.5
20260509113814 54 0.0 0.0 0.00 0.00 0.00 81 997.7
20260509112843 54 277 0.9 0.9 0.00 0.00 0.00 79 997.6
20260509111843 54 277 0.0 0.9 0.00 0.00 0.00 77 997.6
20260509110845 54 250 0.0 0.9 0.00 0.00 0.00 77 997.4
20260509105844 54 0.0 0.0 0.00 0.00 0.00 75 997.4
20260509104843 54 250 0.9 0.9 0.00 0.00 0.00 74 997.3
20260509103845 53 250 0.9 0.9 0.00 0.00 0.00 75 997.2
20260509102923 53 250 1.7 1.7 0.00 0.00 0.00 76 997.2
20260509102545 53 298 0.9 0.9 0.00 0.00 0.00 75 996.7
20260509101544 53 288 0.9 0.9 0.00 0.00 0.00 77 996.7
20260509100544 53 287 0.0 0.9 0.00 0.00 0.00 78 996.8
20260509095514 53 0.0 0.0 0.00 0.00 0.00 78 996.9
20260509094414 53 0.0 0.0 0.00 0.00 0.00 78 996.7
20260509093344 53 0.0 0.0 0.00 0.00 0.00 77 996.6
20260509092345 53 0.0 0.0 0.00 0.00 0.00 76 996.7
20260509091345 53 0.0 0.0 0.00 0.00 0.00 76 996.6
20260509090425 53 0.0 0.0 0.00 0.00 0.00 76 996.6
20260509085313 53 336 0.0 0.9 0.00 0.00 0.00 74 996.6
20260509084213 54 288 0.0 0.9 0.00 0.00 0.00 74 996.7
20260509083114 53 0.0 0.0 0.00 0.00 0.00 75 996.7
20260509082014 54 0.0 0.0 0.00 0.00 0.00 75 996.7
20260509081006 53 0.0 0.0 0.00 0.00 0.00 76 996.9
20260509075944 54 290 0.9 0.9 0.00 0.00 0.00 75 997.0
20260509074914 54 0.0 0.0 0.00 0.00 0.00 73 997.1
20260509073813 53 356 0.0 0.9 0.00 0.00 0.00 72 997.0
20260509072814 53 0.0 0.0 0.00 0.00 0.00 74 996.9
20260509071815 52 357 0.9 0.9 0.00 0.00 0.00 75 996.9
20260509070843 52 0.0 0.0 0.00 0.00 0.00 77 997.0
20260509065843 52 0.0 0.0 0.00 0.00 0.00 79 996.8
20260509064843 52 0.0 0.0 0.00 0.00 0.00 78 996.8
20260509063843 52 261 0.0 0.9 0.00 0.00 0.00 79 997.0
20260509062844 52 0.0 0.0 0.00 0.00 0.00 79 997.0
20260509061844 52 0.0 0.0 0.00 0.00 0.00 79 997.2
20260509060846 52 261 0.0 0.9 0.00 0.00 0.00 78 997.1
20260509055845 52 0.0 0.0 0.00 0.00 0.00 77 997.1
20260509054837 53 261 0.9 0.9 0.00 0.00 0.00 78 997.3
20260509053715 53 261 0.0 0.9 0.00 0.00 0.00 76 997.4
20260509052643 53 0.0 0.0 0.00 0.00 0.00 75 997.5
20260509051644 53 0.0 0.0 0.00 0.00 0.00 75 997.5
20260509050645 54 0.0 0.0 0.00 0.00 0.00 76 997.3
20260509045612 53 0.0 0.0 0.00 0.00 0.00 77 997.4
20260509044704 54 261 0.9 0.9 0.00 0.00 0.00 78 997.2
20260509043645 53 261 0.9 0.9 0.00 0.00 0.00 79 997.3
20260509042643 53 0.0 0.0 0.00 0.00 0.00 78 997.1
20260509041643 54 261 0.9 0.9 0.00 0.00 0.00 77 997.1
20260509040614 54 261 0.0 0.9 0.00 0.00 0.00 77 997.3
20260509035603 54 261 0.0 0.9 0.00 0.00 0.00 75 997.5
20260509034514 54 0.0 0.0 0.00 0.00 0.00 75 997.8
20260509033443 54 0.0 0.0 0.00 0.00 0.00 74 997.6
20260509032433 55 261 0.9 0.9 0.00 0.00 0.00 73 997.6
20260509031345 56 0.0 0.0 0.00 0.00 0.00 72 997.7
20260509030314 56 0.0 0.0 0.00 0.00 0.00 71 997.6
20260509025243 57 0.0 0.0 0.00 0.00 0.00 71 997.8
20260509024214 57 261 0.9 1.7 0.00 0.00 0.00 71 997.8
20260509023204 58 261 0.9 0.9 0.00 0.00 0.00 68 997.8
20260509022114 58 295 1.7 1.7 0.00 0.00 0.00 66 997.9
20260509021045 57 296 0.9 1.7 0.00 0.00 0.00 71 997.9
20260509020016 57 0.0 0.0 0.00 0.00 0.00 68 997.9
20260509014944 57 0.0 0.0 0.00 0.00 0.00 71 997.8
20260509013914 57 0.0 0.0 0.00 0.00 0.00 69 997.8
20260509012843 58 0.0 0.0 0.00 0.00 0.00 69 997.7
20260509011813 58 0.0 0.0 0.00 0.00 0.00 69 997.8
20260509010746 58 0.0 0.0 0.00 0.00 0.00 70 997.8
20260509005716 58 296 0.9 0.9 0.00 0.00 0.00 67 997.4
20260509004706 59 296 0.9 0.9 0.00 0.00 0.00 65 997.5
20260509003614 59 0.0 0.0 0.00 0.00 0.00 62 997.6
20260509002546 60 0.0 0.0 0.00 0.00 0.00 57 997.4
20260509001513 60 296 1.7 1.7 0.00 0.00 0.00 59 997.2
20260509000443 61 341 0.0 0.9 0.00 0.00 0.00 55 997.0
20260508235415 62 341 0.0 0.9 0.00 0.00 0.00 52 997.0
20260508234404 63 0.0 0.0 0.00 0.00 0.00 47 997.1
20260508233334 63 0.0 0.0 0.00 0.00 0.00 46 996.7
20260508232244 64 0.0 0.0 0.00 0.00 0.00 44 996.9
20260508231213 65 0.0 0.0 0.00 0.00 0.00 41 996.8
20260508230224 65 0.0 0.0 0.00 0.00 0.00 40 996.8
20260508225122 65 0.0 0.0 0.00 0.00 0.00 41 996.9
20260508224044 65 0.0 0.0 0.00 0.00 0.00 44 997.0
20260508223015 65 266 1.7 1.7 0.00 0.00 0.00 48 996.8
20260508221950 65 0.0 0.0 0.00 0.00 0.00 43 997.1
20260508220914 66 243 2.6 5.2 0.00 0.00 0.00 47 997.0
20260508215924 66 259 0.9 0.9 0.00 0.00 0.00 42 997.1
20260508214813 66 313 0.9 0.9 0.00 0.00 0.00 42 997.0
20260508213743 65 343 0.9 1.7 0.00 0.00 0.00 44 997.1
20260508212744 65 251 0.9 1.7 0.00 0.00 0.00 43 997.0
20260508211744 65 0.0 0.0 0.00 0.00 0.00 40 997.1
20260508210744 66 17 0.0 0.9 0.00 0.00 0.00 40 997.4
20260508205826 65 0.0 0.0 0.00 0.00 0.00 42 997.3
20260508204746 66 350 2.6 4.3 0.00 0.00 0.00 39 997.4
20260508203743 66 252 0.0 0.9 0.00 0.00 0.00 40 997.3
20260508202746 66 276 2.6 2.6 0.00 0.00 0.00 42 997.5
20260508201806 66 256 0.9 1.7 0.00 0.00 0.00 37 997.6
20260508200743 68 271 6.1 13.0 0.00 0.00 0.00 35 997.6
20260508195744 68 348 3.5 4.3 0.00 0.00 0.00 39 997.7
20260508194744 69 214 4.3 6.1 0.00 0.00 0.00 40 997.7
20260508193745 69 295 1.7 1.7 0.00 0.00 0.00 38 997.7
20260508192736 69 230 3.5 5.2 0.00 0.00 0.00 38 998.0
20260508191713 69 346 1.7 1.7 0.00 0.00 0.00 37 997.8
20260508190704 67 290 2.6 2.6 0.00 0.00 0.00 38 998.4
20260508185643 67 311 1.7 1.7 0.00 0.00 0.00 37 998.3
20260508184644 68 257 2.6 4.3 0.00 0.00 0.00 36 998.4
20260508183645 68 226 4.3 7.8 0.00 0.00 0.00 34 998.6
20260508182643 68 346 3.5 4.3 0.00 0.00 0.00 36 998.5
20260508181643 68 243 7.0 7.8 0.00 0.00 0.00 44 998.8
20260508180644 67 242 3.5 5.2 0.00 0.00 0.00 38 998.6
20260508175644 66 229 2.6 5.2 0.00 0.00 0.00 38 998.7
20260508174647 66 215 4.3 6.1 0.00 0.00 0.00 41 999.0